Home > Weather > Tsu > Past weeks

Flag for Japan Past Weather in Tsu, Japan — Yesterday and Last 2 Weeks

Now
75 °F

Mild.


Feels Like: 76 °F
Forecast: 71 / 89 °F
Wind: 2 mph from West

Location: Tsu

Current Time: Jul 30, 2016 at 6:47:11 AM

Latest Report: Jul 30, 2016 at 6:00 AM


Visibility: N/A

Pressure: 29.96 "Hg

Humidity: 82%

Dew Point: 69 °F

Location of TsuLocation

Past Weather in Tsu — Graph

°F

Tsu Temperature Yesterday

Maximum temperature yesterday: 86 °F (at 2:00 PM)
Minimum temperature yesterday: 77 °F (at 3:00 AM)
Average temperature yesterday: 82 °F

High & Low Weather Summary for the Past Weeks

 TemperatureHumidityPressure
High92 °F (Jul 18, 2:00 PM)89% (Jul 22, 4:00 AM)29.99 "Hg (Jul 22, 4:00 AM)
Low72 °F (Jul 26, 7:00 PM)39% (Jul 19, 2:00 PM)29.47 "Hg (Jul 15, 5:00 AM)
Average79 °F70%29.84 "Hg
* Reported Jul 15 5:00 AM — Jul 30 5:00 AM, Tsu, Weather by CustomWeather, © 2016

Note: Actual official high and low records may vary slightly from our data, if they occured in-between our weather recording intervals... More about our weather records

Advertising

Tsu Weather History for the Previous 24 Hours

Scroll right to see more
 ConditionsComfort  
Time TempWeatherWind HumidityBarometerVisibility
5:00 AM
Sat, Jul 30
75 °FMild.3 mph84%29.94 "HgN/A
4:00 AM76 °FMild.3 mph82%29.93 "HgN/A
3:00 AM76 °FMild.3 mph81%29.93 "HgN/A
2:00 AM78 °FWarm.6 mph77%29.93 "HgN/A
1:00 AM78 °FWarm.6 mph75%29.93 "HgN/A
12:00 AM79 °FWarm.6 mph74%29.93 "HgN/A
11:00 PM
Fri, Jul 29
79 °FWarm.9 mph73%29.94 "HgN/A
10:00 PM80 °FWarm.8 mph71%29.94 "HgN/A
9:00 PM80 °FPassing clouds.7 mph73%29.94 "Hg19 mi
8:00 PM82 °FWarm.9 mph70%29.92 "HgN/A
7:00 PM83 °FWarm.10 mph66%29.91 "HgN/A
6:00 PM83 °FWarm.8 mph70%29.90 "HgN/A
5:00 PM83 °FWarm.12 mph70%29.90 "HgN/A
4:00 PM85 °FWarm.12 mph65%29.91 "HgN/A
3:00 PM84 °FPartly sunny.10 mph66%29.92 "Hg19 mi
2:00 PM86 °FWarm.9 mph63%29.93 "HgN/A
1:00 PM85 °FWarm.9 mph66%29.93 "HgN/A
12:00 PM84 °FWarm.7 mph68%29.95 "HgN/A
9:00 AM81 °FPartly sunny.3 mph73%29.96 "Hg12 mi
Weather by CustomWeather, © 2016

See weather overviewHow to use our weather pages